Location: Newark
(40.3667°N, 3.7500°W)
Time: 23:31:04
(UTC+00:00)

N. Korean satellite - Visible Passes

Search period start: 19 September 2019 00:00
Search period end: 29 September 2019 00:00
Orbit: 455 x 509 km, 97.2° (Epoch: 18 September)

Date Brightness Start Highest point End Pass type
(mag) Time Alt. Az. Time Alt. Az. Time Alt. Az.
19 Sep 9.6 05:27:28 10° NE 05:30:01 19° E 05:32:32 10° SE visible
23 Sep 9.8 05:20:17 10° NE 05:22:27 16° E 05:24:37 10° SE visible
24 Sep 10.7 18:38:40 10° W 18:39:13 10° W 18:39:44 10° W visible
27 Sep 10.0 05:13:13 10° ENE 05:14:51 13° E 05:16:29 10° ESE visible
28 Sep 10.3 18:30:00 10° WSW 18:31:35 13° W 18:33:11 10° WNW visible
